Flag for Sweden Weather past 2 weeks in Eskilstuna, Sweden

Now
45 °F

Overcast.


Feels Like: 41 °F
Forecast: 39 / 55 °F
Wind: 7 mph from Northeast

Location: Vasteras / Hasslo

Current Time: Apr 18, 2015 at 9:27:53 PM

Latest Report: Apr 18, 2015 at 8:50 PM


Visibility: N/A

Pressure: 30.12 "Hg

Humidity: 61%

Dew point: 32 °F

Location of EskilstunaLocation

Historic Weather in Eskilstuna — Graph

°F

Eskilstuna temperature yesterday

Maximum temperature yesterday: 43 °F (at 2:50 PM)
Minimum temperature yesterday: 34 °F (at 4:50 AM)
Average temperature yesterday: 39 °F

Past Weeks' High & Low Weather Summary

 TemperatureHumidityPressure
High59 °F (Apr 7, 2:20 PM)100% (Apr 5, 11:20 PM)30.39 "Hg (Apr 5, 11:20 PM)
Low25 °F (Apr 6, 3:50 AM)24% (Apr 8, 3:20 PM)29.36 "Hg (Apr 15, 7:50 PM)
Average43 °F65%29.94 "Hg
* Reported Apr 3 8:20 PM — Apr 18 8:20 PM, Eskilstuna, Weather by CustomWeather, © 2015

Note: Actual official high and low records may vary slightly from our data, if they occured in-between our weather recording intervals... More about our weather records

Advertising

Eskilstuna weather history for previous 24 hours

 ConditionsComfort  
Time TempWeatherWind HumidityBarometerVisibility
8:20 PM
Sat, Apr 18
46 °FBroken clouds.9 mph57%30.12 "HgN/A
7:50 PM46 °FMostly cloudy.13 mph57%30.12 "HgN/A
7:20 PM48 °FPartly sunny.14 mph54%30.12 "HgN/A
6:50 PM48 °FOvercast.10 mph54%30.09 "HgN/A
6:20 PM50 °FOvercast.13 mph50%30.09 "HgN/A
5:50 PM50 °FOvercast.12 mph47%30.09 "HgN/A
5:20 PM50 °FPartly sunny.13 mph47%30.09 "HgN/A
4:50 PM52 °FPartly sunny.14 mph44%30.09 "HgN/A
4:20 PM52 °FPartly sunny.16 mph44%30.09 "HgN/A
3:50 PM52 °FPartly sunny.14 mph44%30.09 "HgN/A
3:20 PM52 °FPartly sunny.13 mph41%30.09 "HgN/A
2:50 PM52 °FScattered clouds.12 mph44%30.09 "HgN/A
2:20 PM54 °FPassing clouds.10 mph38%30.09 "HgN/A
1:50 PM52 °FPassing clouds.12 mph44%30.09 "HgN/A
1:20 PM52 °FCool.13 mph44%30.12 "HgN/A
12:50 PM52 °FCool.12 mph44%30.12 "HgN/A
12:20 PM50 °FPassing clouds.10 mph50%30.12 "HgN/A
11:50 AM50 °FPassing clouds.14 mph50%30.12 "HgN/A
11:20 AM48 °FPassing clouds.9 mph54%30.15 "HgN/A
10:50 AM48 °FCool.8 mph54%30.15 "HgN/A
10:20 AM46 °FCool.6 mph57%30.15 "HgN/A
9:50 AM45 °FQuite cool.9 mph61%30.15 "HgN/A
9:20 AM43 °FQuite cool.14 mph66%30.15 "HgN/A
8:50 AM43 °FQuite cool.14 mph66%30.15 "HgN/A
8:20 AM41 °FQuite cool.13 mph70%30.15 "HgN/A
7:50 AM39 °FChilly.10 mph75%30.15 "HgN/A
7:20 AM37 °FChilly.9 mph81%30.18 "HgN/A
6:50 AM36 °FChilly.7 mph81%30.18 "HgN/A
6:20 AM36 °FChilly.8 mph81%30.18 "HgN/A
5:50 AM36 °FChilly.9 mph81%30.18 "HgN/A
5:20 AM32 °FChilly.8 mph87%30.18 "HgN/A
4:50 AM30 °FChilly.6 mph86%30.18 "HgN/A
4:20 AM27 °FChilly.2 mph93%30.18 "HgN/A
3:50 AM27 °FChilly.1 mph93%30.18 "HgN/A
3:20 AM28 °FChilly.No wind93%30.18 "HgN/A
2:50 AM28 °FChilly.No wind86%30.18 "HgN/A
2:20 AM28 °FChilly.2 mph86%30.18 "HgN/A
1:50 AM32 °FPassing clouds.3 mph80%30.18 "HgN/A
1:20 AM32 °FChilly.3 mph80%30.18 "HgN/A
12:50 AM32 °FPassing clouds.3 mph80%30.18 "HgN/A
12:20 AM34 °FChilly.2 mph75%30.18 "HgN/A
11:50 PM
Fri, Apr 17
36 °FChilly.6 mph75%30.18 "HgN/A
11:20 PM36 °FChilly.7 mph75%30.15 "HgN/A
10:50 PM36 °FChilly.7 mph75%30.15 "HgN/A
10:20 PM36 °FClear.7 mph75%30.15 "Hg10 mi
9:50 PM37 °FClear.7 mph70%30.15 "Hg10 mi
9:20 PM36 °FClear.8 mph75%30.15 "Hg10 mi
Weather by CustomWeather, © 2015

See weather overviewHow to use our weather pages